| time (UTC) | temp F | wind direction | speed knots | gust knots | rain 1hr in | rain 24hr in | rain mn in | humidity % | barometer mb |
| 20260507031602 | 55 | 102 | 2.6 | 2.6 | 0.00 | 0.00 | 0.00 | 55 | 1058.6 |
| 20260507024602 | 56 | 80 | 2.6 | 2.6 | 0.00 | 0.00 | 0.00 | 54 | 1057.9 |
| 20260507023102 | 56 | 147 | 0.0 | 0.0 | 0.00 | 0.00 | 0.00 | 52 | 1057.9 |
| 20260507021602 | 57 | 118 | 0.0 | 2.6 | 0.00 | 0.00 | 0.00 | 51 | 1057.6 |
| 20260507014603 | 59 | 88 | 0.0 | 6.1 | 0.00 | 0.00 | 0.00 | 48 | 1057.2 |
| 20260507011603 | 61 | 131 | 1.7 | 7.0 | 0.00 | 0.00 | 0.00 | 45 | 1056.9 |
| 20260507004602 | 62 | 51 | 2.6 | 4.3 | 0.00 | 0.00 | 0.00 | 44 | 1056.9 |
| 20260507001602 | 63 | 71 | 1.7 | 7.0 | 0.00 | 0.00 | 0.00 | 44 | 1056.6 |
| 20260506234602 | 64 | 124 | 3.5 | 4.3 | 0.00 | 0.00 | 0.00 | 43 | 1056.2 |
| 20260506233102 | 66 | 74 | 1.7 | 2.6 | 0.00 | 0.00 | 0.00 | 42 | 1056.2 |
| 20260506231602 | 65 | 84 | 4.3 | 7.8 | 0.00 | 0.00 | 0.00 | 41 | 1055.9 |
| 20260506230103 | 66 | 85 | 3.5 | 8.7 | 0.00 | 0.00 | 0.00 | 40 | 1055.9 |
| 20260506224602 | 66 | 323 | 1.7 | 7.0 | 0.00 | 0.00 | 0.00 | 41 | 1055.5 |
| 20260506222602 | 66 | 33 | 3.5 | 7.8 | 0.00 | 0.00 | 0.00 | 41 | 1055.5 |
| 20260506221102 | 65 | 73 | 2.6 | 7.0 | 0.00 | 0.00 | 0.00 | 42 | 1055.5 |
| 20260506215602 | 65 | 91 | 4.3 | 8.7 | 0.00 | 0.00 | 0.00 | 41 | 1055.5 |
| 20260506214102 | 65 | 103 | 5.2 | 10.4 | 0.00 | 0.00 | 0.00 | 41 | 1055.5 |
| 20260506212602 | 66 | 74 | 2.6 | 5.2 | 0.00 | 0.00 | 0.00 | 42 | 1055.9 |
| 20260506211103 | 65 | 57 | 1.7 | 7.8 | 0.00 | 0.00 | 0.00 | 44 | 1055.9 |
| 20260506201602 | 65 | 55 | 4.3 | 8.7 | 0.00 | 0.00 | 0.00 | 45 | 1056.2 |
| 20260506194603 | 64 | 60 | 3.5 | 7.8 | 0.00 | 0.00 | 0.00 | 45 | 1056.6 |
| 20260506193102 | 61 | 48 | 3.5 | 11.3 | 0.00 | 0.00 | 0.00 | 49 | 1056.9 |
| 20260506191602 | 61 | 32 | 4.3 | 8.7 | 0.00 | 0.00 | 0.00 | 51 | 1056.9 |
| 20260506184602 | 61 | 66 | 7.0 | 7.8 | 0.00 | 0.00 | 0.00 | 49 | 1056.9 |
| 20260506183102 | 60 | 99 | 5.2 | 7.0 | 0.00 | 0.00 | 0.00 | 50 | 1057.2 |
| 20260506182102 | 60 | 96 | 7.8 | 10.4 | 0.00 | 0.00 | 0.00 | 50 | 1057.2 |
| 20260506180602 | 61 | 72 | 5.2 | 8.7 | 0.00 | 0.00 | 0.00 | 49 | 1057.6 |
| 20260506175102 | 61 | 65 | 4.3 | 10.4 | 0.00 | 0.00 | 0.00 | 50 | 1057.6 |
| 20260506173603 | 61 | 90 | 5.2 | 9.6 | 0.00 | 0.00 | 0.00 | 49 | 1057.6 |
| 20260506172102 | 63 | 82 | 6.1 | 8.7 | 0.00 | 0.00 | 0.00 | 48 | 1057.6 |
| 20260506170602 | 61 | 80 | 6.1 | 13.9 | 0.00 | 0.00 | 0.00 | 49 | 1057.6 |
| 20260506165102 | 59 | 108 | 4.3 | 13.0 | 0.00 | 0.00 | 0.00 | 51 | 1057.6 |
| 20260506163602 | 60 | 78 | 9.6 | 12.2 | 0.00 | 0.00 | 0.00 | 50 | 1057.9 |
| 20260506162102 | 59 | 94 | 6.1 | 10.4 | 0.00 | 0.00 | 0.00 | 52 | 1057.9 |
| 20260506160602 | 58 | 39 | 7.8 | 13.0 | 0.00 | 0.00 | 0.00 | 53 | 1057.6 |
| 20260506155102 | 58 | 52 | 7.0 | 9.6 | 0.00 | 0.00 | 0.00 | 55 | 1057.6 |
| 20260506153602 | 56 | 85 | 7.0 | 10.4 | 0.00 | 0.00 | 0.00 | 57 | 1057.6 |
| 20260506150602 | 54 | 25 | 3.5 | 11.3 | 0.00 | 0.00 | 0.00 | 62 | 1057.6 |
| 20260506145103 | 53 | 99 | 12.2 | 12.2 | 0.00 | 0.00 | 0.00 | 65 | 1057.2 |
| 20260506143603 | 51 | 66 | 9.6 | 12.2 | 0.00 | 0.00 | 0.00 | 69 | 1057.2 |
| 20260506142102 | 51 | 99 | 6.1 | 7.0 | 0.00 | 0.00 | 0.00 | 71 | 1056.9 |
| 20260506140602 | 51 | 90 | 4.3 | 7.0 | 0.00 | 0.00 | 0.00 | 71 | 1057.2 |
| 20260506135102 | 50 | 70 | 3.5 | 8.7 | 0.00 | 0.00 | 0.00 | 73 | 1057.2 |
| 20260506132102 | 49 | 81 | 5.2 | 7.8 | 0.00 | 0.00 | 0.00 | 75 | 1057.2 |
| 20260506130603 | 49 | 101 | 3.5 | 7.0 | 0.00 | 0.00 | 0.00 | 76 | 1056.9 |
| 20260506125102 | 49 | 177 | 0.9 | 6.1 | 0.00 | 0.00 | 0.00 | 76 | 1056.9 |
| 20260506122602 | 48 | 110 | 6.1 | 7.0 | 0.00 | 0.00 | 0.00 | 78 | 1056.6 |
| 20260506121102 | 48 | 55 | 1.7 | 7.0 | 0.00 | 0.00 | 0.00 | 78 | 1055.9 |
| 20260506115602 | 48 | 75 | 3.5 | 5.2 | 0.00 | 0.00 | 0.00 | 79 | 1055.9 |
| 20260506114102 | 48 | 53 | 4.3 | 4.3 | 0.00 | 0.00 | 0.00 | 79 | 1055.9 |
| 20260506112602 | 48 | 3 | 1.7 | 5.2 | 0.00 | 0.00 | 0.00 | 78 | 1055.9 |
| 20260506111103 | 48 | 84 | 2.6 | 7.0 | 0.00 | 0.00 | 0.00 | 77 | 1055.5 |
| 20260506105602 | 48 | 50 | 3.5 | 4.3 | 0.00 | 0.00 | 0.00 | 76 | 1055.5 |
| 20260506104102 | 48 | 52 | 1.7 | 4.3 | 0.00 | 0.00 | 0.00 | 75 | 1056.6 |
| 20260506103102 | 49 | 66 | 1.7 | 7.0 | 0.00 | 0.00 | 0.00 | 75 | 1056.2 |
| 20260506101602 | 49 | 82 | 2.6 | 6.1 | 0.00 | 0.00 | 0.00 | 75 | 1055.9 |
| 20260506094602 | 49 | 216 | 1.7 | 4.3 | 0.00 | 0.00 | 0.00 | 74 | 1055.5 |
| 20260506093102 | 49 | 303 | 0.0 | 2.6 | 0.00 | 0.00 | 0.00 | 73 | 1054.9 |
| 20260506091602 | 49 | 140 | 0.0 | 4.3 | 0.00 | 0.00 | 0.00 | 72 | 1054.9 |
| 20260506081602 | 49 | 22 | 2.6 | 4.3 | 0.00 | 0.00 | 0.00 | 70 | 1053.8 |
| 20260506080602 | 49 | 306 | 2.6 | 5.2 | 0.00 | 0.00 | 0.00 | 70 | 1053.8 |
| 20260506072602 | 49 | 48 | 2.6 | 7.8 | 0.00 | 0.00 | 0.00 | 69 | 1053.2 |
| 20260506061602 | 49 | 302 | 3.5 | 7.8 | 0.00 | 0.00 | 0.00 | 68 | 1053.5 |
| 20260506042102 | 49 | 36 | 6.1 | 9.6 | 0.00 | 0.00 | 0.00 | 69 | 1053.2 |
| 20260506041102 | 49 | 42 | 1.7 | 7.0 | 0.00 | 0.00 | 0.00 | 70 | 1053.2 |
| 20260506035602 | 49 | 86 | 3.5 | 8.7 | 0.00 | 0.00 | 0.00 | 72 | 1053.2 |
| 20260506034102 | 49 | 76 | 3.5 | 7.8 | 0.00 | 0.00 | 0.00 | 74 | 1052.8 |